Find Starlink 31659

NORAD ID: 59254 Int'l Des: 2024-050 Owner: SPXS Country: US Constellation: starlink operational
LEOCIRCULAR

Live-Position

3D-Globus wird geladen...

Über Starlink 31659

Beschreibung wird geladen...

Nächste Überflüge

Passes for default location (London). Set your location on the main map for personalized predictions.

Höhenverlauf

Loading altitude history...

Zweizeiliger Elementsatz

1 59254U 24050A 26133.00710410 .00002753 00000-0 92680-4 0 9990
2 59254 53.1624 239.5686 0001451 106.5208 253.5954 15.34364909121584
Epoch: 13. Mai 2026 • Age: 13 hours

Aktueller Status

Höhe 472.2 km
Geschwindigkeit 7.63 km/s
Subsatellitenpunkt -29.92°S, 6.65°E
Startdatum 19. März 2024
Alter 2.1 years
Typ internet

Technische Details

Klassifizierung Payload
Masse 730.00 kg
Trockenmasse 700.00 kg
Gesamtmasse 730.00 kg
Länge 0.30 m
Durchmesser 4.10 m
Spannweite 29.00 m
Form Box + pan
Hersteller SPXS
Bus-Typ Starlink V2M
Phasenstatus In Orbit
Besitzer/Staat SPXS/US

Most Searched